Regional Weather Roundup
Issued by NWS

Home | Current Version | Previous Version | Graphics & Text | Print | Product List | Glossary On
Versions: 1 2 3 4 5 6 7 8 9 10 11 12 13 14 15 16 17 18 19 20 21 22 23 24 25 26 27 28 29 30 31 32 33 34 35 36 37 38 39 40 41 42 43 44 45 46 47 48 49 50
000
ASUS45 KABQ 010610
RWRNM
WEATHER ROUNDUP FOR NEW MEXICO
NATIONAL WEATHER SERVICE ALBUQUERQUE NM
1100 PM MST SAT FEB 28 2015

NOTE: "FAIR" MEANS FEW OR NO CLOUDS BELOW 12,000 FEET AGL WITH NO
       SIGNIFICANT WEATHER OR OBSTRUCTIONS TO VISION.

      THIS PRODUCT IS RELEASED AS TWO VERSIONS.  ONE VERSION NEAR
      THE TOP OF THE HOUR CONTAINING PRELIMINARY DATA FROM ALBUQUERQUE
      AND OTHER STATIONS.  A FINAL VERSION WITH ADDITIONAL DATA IS
      ISSUED ABOUT 10 MINUTES AFTER THE HOUR.

NMZ501-503-504-510>518-010700-
NORTHWEST PLATEAU/NORTHCENTRAL MOUNTAINS

CITY           SKY/WX    TMP DP  RH WIND       PRES   REMARKS
FARMINGTON     CLOUDY    33  31  92 NE3       29.96R
6HR MIN TEMP:  33; 6HR MAX TEMP:  34; 6HR PCP:  0.01;

LOS ALAMOS     CLOUDY    31  31 100 S9        29.99R WCI  23
SANTA FE       CLOUDY    32  31  96 SW3       30.00R FOG
6HR MIN TEMP:  31; 6HR MAX TEMP:  34; 6HR PCP:  0.14;

TAOS           CLOUDY    27  23  86 CALM      29.99R
ANGEL FIRE     CLOUDY    35  28  78 SW18G24   29.97R WCI  24

$$
NMZ402-403-502-505>509-010700-
WESTCENTRAL MOUNTAINS/SOUTHWEST MOUNTAINS

CITY           SKY/WX    TMP DP  RH WIND       PRES   REMARKS
GALLUP         CLOUDY    38  34  85 SW5       29.99R WCI  34
6HR MIN TEMP:  38; 6HR MAX TEMP:  45; 6HR PCP:  0.09;

GRANTS         MOCLDY    33  32  96 SE6       30.01R WCI  27
SILVER CITY    PTCLDY    46  36  66 SW6       30.06R

$$
NMZ407-409-411-412-010700-
SOUTHERN DESERTS

CITY           SKY/WX    TMP DP  RH WIND       PRES   REMARKS
LORDSBURG      MOCLDY    50  36  57 SW5       30.01S
DEMING         CLEAR     51  35  54 SW8       30.02R
6HR MIN TEMP:  51; 6HR MAX TEMP:  67;

LAS CRUCES     CLEAR     54  34  46 SW13      30.03R
HOLLOMAN AFB   PTCLDY    42  29  59 CALM      29.99R
ALAMOGORDO     PTCLDY    45  28  53 MISG      30.01R
T OR C         PTCLDY    53  37  54 S8        29.98R
6HR MIN TEMP:  53; 6HR MAX TEMP:  62;


$$
NMZ519>523-010700-
CENTRAL VALLEYS/CENTRAL HIGHLANDS

CITY           SKY/WX    TMP DP  RH WIND       PRES   REMARKS
ALBUQUERQUE    MOCLDY    33  30  88 N3        30.01R
6HR MIN TEMP:  33; 6HR MAX TEMP:  36;

DOUBLE EAGLE   MOCLDY    29  26  89 NW5       30.01R WCI  23
MORIARTY ARPT  CLOUDY    32  29  89 CALM      30.02R
6HR MIN TEMP:  29; 6HR MAX TEMP:  43;

CLINES CORNERS CLOUDY    36  29  75 W10       29.99R WCI  28
6HR MIN TEMP:  35; 6HR MAX TEMP:  39;

BELEN          CLOUDY    33  31  93 W3        30.02R
6HR MIN TEMP:  32; 6HR MAX TEMP:  40;

SOCORRO          N/A     37  31  77 N10       30.01R WCI  30
6HR MIN TEMP:  37; 6HR MAX TEMP:  58;


$$
NMZ524>526-539-540-010700-
SOUTHCENTRAL MOUNTAINS

CITY           SKY/WX    TMP DP  RH WIND       PRES   REMARKS
RUIDOSO        PTCLDY    45  32  61 W13       30.07R

$$
NMZ527>531-010700-
NORTHEAST HIGHLANDS/NORTHEAST PLAINS

CITY           SKY/WX    TMP DP  RH WIND       PRES   REMARKS
LAS VEGAS      FOG       19  16  88 S16       29.97R VSB 1/4 WCI   4
6HR MIN TEMP:  18; 6HR MAX TEMP:  23; 6HR PCP: TRACE;

RATON          CLOUDY    22  19  89 N3        29.97S
6HR MIN TEMP:  19; 6HR MAX TEMP:  22; 6HR PCP: TRACE;

CLAYTON        CLOUDY    23  21  92 SW6       30.02F WCI  16
6HR MIN TEMP:  20; 6HR MAX TEMP:  23;


$$
NMZ532>537-010700-
EASTCENTRAL PLAINS

CITY           SKY/WX    TMP DP  RH WIND       PRES   REMARKS
TUCUMCARI      CLOUDY    26  23  88 SW8       30.10R WCI  18
6HR MIN TEMP:  25; 6HR MAX TEMP:  26;

CANNON AFB     CLOUDY    27  26  98 SW14      30.10R FOG     WCI  15
6HR MIN TEMP:  26; 6HR MAX TEMP:  27;

CLOVIS AIRPORT CLOUDY    27  25  93 S15       30.11R VSB 1   WCI  15

$$
NMZ028-029-538-010700-
SOUTHEAST PLAINS

CITY           SKY/WX    TMP DP  RH WIND       PRES   REMARKS
ROSWELL        CLOUDY    29  27  92 S10       30.13S FOG     WCI  20
6HR MIN TEMP:  28; 6HR MAX TEMP:  30;

ARTESIA        CLOUDY    30  30 100 S12       30.15R FOG     WCI  21
CARLSBAD       CLOUDY    33  29  85 S10       30.13S WCI  25
6HR MIN TEMP:  30; 6HR MAX TEMP:  33;

HOBBS          FOG       28  28 100 SE7       30.15R VSB 3/4 WCI  21


$$


USA.gov is the U.S. government's official web portal to all federal, state and local government web resources and services.